[[{"header":{"parameterUnit":"m.s-1","parameterCategory":1,"la1":30.2992,"la2":30.254,"lo1":-89.0895,"lo2":-89.0443,"dy":0.0025,"dx":0.0025,"nx":19,"ny":19,"refTime":"2026-03-08T21:00:00:Z","depth":0,"parameterNumber":2,"parameterNumberName":"U-component_of_WINDS"},"data":[0,0,0,-0.7422,-0.7421,-0.7394,-0.7394,-0.7374,-0.7374,0,0,0,0,0,0,0,0,0,0,0,-0.7438,-0.7439,-0.7422,-0.7421,-0.7394,-0.7394,-0.7374,-0.7374,0,0,0,0,0,0,0,0,0,0,0,-0.7438,-0.7439,-0.7439,-0.7421,-0.7394,-0.7394,-0.7374,-0.7389,0,0,0,0,0,0,0,0,0,0,-0.7413,-0.7437,-0.7439,-0.7439,-0.7421,-0.7394,-0.7394,-0.739,-0.7388,-0.7392,0,-0.7398,0,-0.7386,-0.7373,-0.7373,0,0,0,-0.7415,-0.7438,-0.7423,-0.7439,-0.7421,-0.7394,-0.7405,-0.7389,-0.7387,-0.739,-0.7397,-0.7396,-0.7385,-0.7373,-0.7373,-0.7418,-0.7418,0,0,-0.7417,-0.7438,-0.7424,-0.7422,-0.7427,-0.7405,-0.7404,-0.7387,-0.7397,-0.7397,-0.7396,-0.7385,-0.7373,-0.7373,-0.7417,-0.7418,0,0,0,-0.7425,-0.744,-0.7424,-0.7424,-0.7418,-0.7405,-0.7403,-0.7397,-0.7391,-0.7395,-0.7385,-0.7373,-0.7373,-0.7417,-0.7418,-0.7465,0,0,0,-0.7426,-0.7444,-0.7425,-0.7438,-0.7418,-0.7407,-0.7414,-0.7392,-0.7389,-0.7385,-0.7373,-0.7373,-0.7416,-0.7417,-0.7462,-0.7483,0,0,0,-0.7437,-0.7446,-0.7445,-0.744,-0.7429,-0.7407,-0.7399,-0.7391,-0.7383,-0.7373,-0.7373,-0.7416,-0.7417,-0.746,-0.7479,-0.7502,0,0,0,-0.7456,-0.7486,-0.7446,-0.7475,-0.7429,-0.7436,-0.7399,-0.7402,-0.7399,-0.7373,-0.7416,-0.7418,-0.7459,-0.7477,-0.75,-0.7526,-0.7539,0,0,-0.7506,-0.7493,-0.7509,-0.7472,-0.7491,-0.7438,-0.7464,-0.7441,-0.742,-0.742,-0.7421,-0.7463,-0.7479,-0.7502,-0.76,-0.761,0,0,0,-0.7532,-0.7544,-0.7544,-0.7543,-0.7525,-0.7513,-0.7483,-0.7475,-0.7474,-0.7424,-0.7476,-0.7485,-0.7497,-0.7509,-0.7518,-0.7527,-0.7424,-0.7423,-0.7423,-0.7635,-0.7607,-0.7631,-0.76,-0.7599,-0.7568,-0.7565,-0.7548,-0.752,-0.7533,-0.7533,-0.7596,-0.761,-0.7617,-0.7627,-0.7543,-0.7544,-0.7544,-0.7544,-0.7707,-0.772,-0.7682,-0.7692,-0.7662,-0.7671,-0.7643,-0.7622,-0.7626,-0.7593,-0.7603,-0.757,-0.7629,-0.7636,-0.7547,-0.7547,-0.7546,-0.7546,-0.7546,-0.7772,-0.7773,-0.7762,-0.7758,-0.7757,-0.7724,-0.773,-0.7702,-0.7676,-0.7686,-0.7684,-0.7683,-0.7679,-0.7686,-0.7687,-0.7687,-0.7687,-0.7687,-0.7687,-0.7845,-0.7831,-0.7839,-0.7824,-0.782,-0.781,-0.778,-0.7775,-0.7763,-0.7742,-0.7742,-0.7714,-0.7639,-0.7622,-0.7691,-0.769,-0.769,-0.7689,-0.7689,-0.793,-0.7906,-0.7919,-0.7915,-0.7896,-0.7898,-0.7862,-0.7855,-0.7846,-0.7851,-0.7819,-0.7769,-0.7753,-0.7746,-0.7732,-0.7825,-0.7825,-0.7825,-0.7825,-0.7986,-0.7975,-0.7983,-0.7978,-0.797,-0.7939,-0.7956,-0.7933,-0.7906,-0.7899,-0.7881,-0.7859,-0.7853,-0.7841,-0.7832,-0.7818,-0.7931,-0.7931,-0.7931,-0.8038,-0.8025,-0.8044,-0.8017,-0.8,-0.7986,-0.8001,-0.7997,-0.7961,-0.7935,-0.7894,-0.7889,-0.7853,-0.7843,-0.7817,-0.7803,-0.7777,0,0]},{"header":{"parameterUnit":"m.s-1","parameterCategory":1,"la1":30.2992,"la2":30.254,"lo1":-89.0895,"lo2":-89.0443,"dy":0.0025,"dx":0.0025,"nx":19,"ny":19,"refTime":"2026-03-08T21:00:00:Z","depth":0,"parameterNumber":3,"parameterNumberName":"V-component_of_WINDS"},"data":[0,0,0,0.116,0.116,0.1133,0.1132,0.1105,0.1105,0,0,0,0,0,0,0,0,0,0,0,0.1173,0.1173,0.116,0.1159,0.1133,0.1132,0.1105,0.1105,0,0,0,0,0,0,0,0,0,0,0,0.1173,0.1173,0.1173,0.1159,0.1133,0.1132,0.1105,0.1123,0,0,0,0,0,0,0,0,0,0,0.1148,0.1164,0.1173,0.1173,0.1159,0.1133,0.1132,0.1123,0.1122,0.112,0,0.1121,0,0.1113,0.1103,0.1103,0,0,0,0.1156,0.1166,0.1154,0.1173,0.1159,0.1133,0.1144,0.1122,0.112,0.1118,0.112,0.1119,0.1112,0.1103,0.1103,0.1111,0.1111,0,0,0.1157,0.117,0.1156,0.1153,0.1158,0.1145,0.1143,0.1121,0.1124,0.112,0.1118,0.1112,0.1103,0.1103,0.1111,0.1111,0,0,0,0.1164,0.1171,0.116,0.1154,0.1149,0.1144,0.1142,0.1125,0.1121,0.1118,0.1111,0.1103,0.1103,0.111,0.1111,0.1135,0,0,0,0.1165,0.1175,0.1161,0.1169,0.115,0.1137,0.1147,0.1122,0.1119,0.1112,0.1103,0.1103,0.111,0.1111,0.1134,0.1145,0,0,0,0.1173,0.1176,0.1174,0.117,0.1159,0.1137,0.1131,0.1121,0.1115,0.1103,0.1103,0.111,0.1111,0.1133,0.1143,0.1152,0,0,0,0.1185,0.1195,0.1175,0.1183,0.1159,0.1152,0.1131,0.1125,0.1118,0.1103,0.111,0.1111,0.1133,0.1142,0.1151,0.1163,0.1168,0,0,0.1205,0.1198,0.1201,0.1183,0.1184,0.1155,0.1159,0.1139,0.1126,0.1116,0.1116,0.1134,0.1143,0.1152,0.1195,0.1199,0,0,0,0.1212,0.1215,0.1213,0.1207,0.1193,0.1182,0.116,0.1153,0.1145,0.1124,0.1139,0.1143,0.1148,0.1153,0.1157,0.1161,0.1113,0.1113,0.1113,0.1259,0.1242,0.1248,0.1228,0.1223,0.1201,0.1195,0.1182,0.1165,0.1169,0.1167,0.1195,0.1201,0.1204,0.1209,0.117,0.1171,0.1171,0.1171,0.1287,0.129,0.1269,0.1267,0.1249,0.1247,0.1227,0.1216,0.1211,0.1195,0.1198,0.1183,0.121,0.1213,0.1172,0.1172,0.1172,0.1172,0.1172,0.1317,0.1316,0.1307,0.1298,0.1293,0.1272,0.127,0.1253,0.1236,0.124,0.1236,0.1236,0.1234,0.1239,0.1239,0.1239,0.1239,0.1239,0.1239,0.1352,0.1342,0.1342,0.1329,0.1324,0.1315,0.1294,0.1288,0.1277,0.1265,0.1265,0.1249,0.1216,0.1208,0.1241,0.1241,0.124,0.124,0.124,0.1389,0.1379,0.1379,0.1374,0.1358,0.1355,0.1333,0.1323,0.1316,0.1315,0.1298,0.1276,0.1267,0.1264,0.1258,0.1301,0.1301,0.1301,0.1301,0.1416,0.141,0.1408,0.1401,0.1392,0.1373,0.1375,0.1359,0.1341,0.1335,0.1326,0.1316,0.1313,0.1306,0.1302,0.1296,0.1348,0.1348,0.1349,0.1438,0.1431,0.1436,0.1419,0.1405,0.1394,0.1396,0.1389,0.1365,0.135,0.1331,0.1329,0.1313,0.1308,0.1294,0.1287,0.1276,0,0]}]]